ARIANE 2 DEB, 42485

Orbit data source: Space-Track

ARIANE 2 DEB, 42485 is space debris in HEO originally from a launch on Fri, 27 Jan 1989 UTC launched from the French Guiana (FRGUI). Debris objects in space refer to the collection of defunct objects orbiting the Earth. Examples of debris include non-operational satellites, rocket bodies, and fragments generated from explosions, collisions, or faulty payload assembly.

Loading next visibility...
Identifier
42485, 1989-006CM
Orbit
HEO
Country
Flag of FRFR
Related business
Manufacturer
EADS/LV
Mission
Spacecraft
Bus & Motor
Unknown
Mass
Unknown
Launch date (UTC)
1989-01-27 (37 years ago)
Launch vehicle
Unknown
Launch site
French Guiana (FRGUI)
Object type
Payload
Rocket body
Debris
Shape & HBR
Unknown shape, 0.3 m
Radar Cross Section
Medium (>0.1 m² and <1 m²)

Expand to show TLE details & history
Last TLE update: 2 days ago

TLE from 2 days ago
0 ARIANE 2 DEB
1 42485U 89006CM  25347.88374235 -.00000008  00000-0  00000-0 0  9996
2 42485   8.4811  97.6639 6694349  67.8462   4.4747  2.17667226 94537
Epoch: 2025-12-13T21:12Z
TLE epoch observation values (Epoch: 2025-12-13T21:12:35.339Z)
Latitude
8.43453°
Longitude
153.97709°
Altitude
2,409.157 km
Speed
8.653 km/s
True Right ascension
12h 59m 42s
True Declination
8° 23' 39"
Sunlit
Object was in daylight at epoch
Visualization orbit readout
Latitude
Unknown
Longitude
Unknown
Altitude
Unknown
Speed
Unknown
Apparent Right ascension
Unknown
Apparent Declination
Unknown
Sunlit
N/A
Visualization observer readout
Local Sidereal Time
03:10:36
Azimuth
Unknown
Elevation
Unknown
Doppler factor
Unknown
Orbital elements
Apogee altitude
35,615.252 km
Perigee altitude
1,936.981 km
Semi-major axis
25,154.254 km
Eccentricity
0.66943
Inclination
8.4811°
RAAN
97.6639°
Arg. of periapsis
67.8462°
True anomaly
29.35412°
Mean anomaly
4.4747°
Eccentric anomaly
13.29553°
Mean motion
0.54403 °/min
Orbital period
661.72 mins
BSTAR
0
Loading maneuver chart data...
Computing Atmospheric mass density...
Loading historical data...
Loading historical data...
Loading historical data...
Loading historical data...
Loading historical data...
Loading historical data...
Loading historical data...

Documentation

Showing up to 5 results
|